Powrót do katalogu

ECHO 2 DEB

METAL OBJ

AktywnyPO
NORAD 742·DEBRIS·🇺🇸 United States

Wystrzelony Jan 25, 1964 z Vandenberg Space Force Base

Loading…

Następne Przeloty (najbliższe 24 godziny)

TLE

ŚwieżeSource: Space-Track

Epoka: Sep 14, 2026, 05:22 UTC

1 00742U 64004C   26257.22401097  .00000080  00000-0  14868-3 0  9992
2 00742  81.4709 341.2847 0170290 261.2426  96.9381 13.26297821 29160

Śledź ECHO 2 DEB w czasie rzeczywistym z AllMySat

Download on the App Store